Regional Weather Roundup
Issued by NWS New Orleans/Baton Rouge, LA

Home | Current Version | Previous Version | Text Only | Print | Product List | Glossary On
Versions: 1 2 3 4 5 6 7 8 9 10 11 12 13 14 15 16 17 18 19 20 21 22 23 24 25 26 27 28 29 30 31 32 33 34 35 36 37 38 39 40 41 42 43 44 45 46 47 48 49 50
000
ASUS44 KLIX 130510
RWRLIX
NEW ORLEANS REGIONAL WEATHER ROUNDUP
NATIONAL WEATHER SERVICE NEW ORLEANS LA
1100 PM CST FRI FEB 12 2016

NOTE: "FAIR" INDICATES FEW OR NO CLOUDS BELOW 12,000 FEET WITH NO
      SIGNIFICANT WEATHER AND/OR OBSTRUCTIONS TO VISIBILITY.
      SKY/WX - SKY CONDITION AND SIGNIFICANT WEATHER.
      TMP - AIR TEMPERATURE.     DP    - DEWPOINT TEMPERATURE.
      RH  - RELATIVE HUMIDITY.   PRES  - PRESSURE.
      HI  - HEAT INDEX.          WCI   - WIND CHILL INDEX.

*  THESE STATIONS ARE NOT NWS OR FAA STATIONS AND ARE NOT UNDER
   NWS QUALITY CONTROL.

LAZ038-040-048-061>063-065>067-069-130600-
SOUTHEAST LOUISIANA

CITY           SKY/WX    TMP DP  RH WIND       PRES   REMARKS
N.O. AUDUBON     N/A     64  54  70 MISG        N/A
N.O. INTL ARPT PTCLDY    61  46  57 N6        30.29R
N.O. LAKEFRONT CLEAR     57  49  74 N12       30.29R
N.O. DOWNTOWN*   N/A     64  45  48 MISG      30.29S
RESERVE*         N/A     62  48  59 N6        30.29S
SLIDELL        CLEAR     56  45  66 N8        30.29R
BATON ROUGE    PTCLDY    59  39  47 NE7       30.29R
BOOTHVILLE     PTCLDY    61  58  90 W7        30.27S
BELLE CHASSE   PTCLDY    61  47  59 N5        30.28S
BOGALUSA*        N/A     55  38  52 N8        30.32S
GALLIANO*      MOCLDY    62  58  88 W5        30.28S
NEW ROADS*       N/A     56  40  53 NE6       30.30S
GONZALES*        N/A     61  46  57 CALM      30.28S
HAMMOND*       CLEAR     57  37  47 N7        30.29S
HOUMA*         PTCLDY    58  57  98 NW5       30.29R
PORT FOURCHON* CLEAR     61  59  94 W6        30.29S

$$

MSZ070-080>082-130600-
SOUTHERN MISSISSIPPI

CITY           SKY/WX    TMP DP  RH WIND       PRES   REMARKS
MCCOMB         CLEAR     54  37  52 N6        30.32R
GULFPORT       CLEAR     60  40  47 N9        30.27R
BILOXI         CLEAR     59  42  53 VRB3      30.27R
PASCAGOULA     CLEAR     59  41  51 N13       30.27R

$$

COASTAL OBSERVATIONS
LAKE AND NEARSHORE STATIONS

STATION/POSITION TIME  TEMP    WIND        PRES    WAVE
                       AIR SEA DIR/SP/G            HT/PER
                 (UTC) (F)     (DEG/KT/KT) (MB)    (FT/S)
PASCAGOULA       0400   61     360/  8/ 10 1024.0
WAVELAND YACHT   0400   62 60  340/  3/  4 1024.7
GRAND ISLE       0400   63 65  280/ 13/ 15 1025.2
NEW CANAL        0400   59 56   10/  7/  9 1024.4
SHELL BEACH      0400   62 57  320/ 10/ 11 1024.6

OFFSHORE STATIONS

STATION/POSITION TIME  TEMP    WIND        PRES    WAVE
                       AIR SEA DIR/SP/G            HT/PER
                 (UTC) (F)     (DEG/KT/KT) (MB)    (FT/S)

$$




USA.gov is the U.S. government's official web portal to all federal, state and local government web resources and services.